Location: Carrières
(48.9495°N, 2.0407°E)
Time: 18:56:21
(UTC+00:00)

Altair - Pass Details

Date: 28 April 2024
Orbit: 1502 x 1682 km, 47.2° (Epoch: 21 May)

Event Time Altitude Azimuth Distance (km) Brightness Sun altitude
Rises 20:15:30 0° 276° (W) 4,919 11.2 -10.9°
Reaches altitude 10° 20:18:42 10° 276° (W) 3,917 10.6 -11.4°
Maximum altitude 20:28:42 77° 193° (SSW) 1,662 7.6 -12.6°
Enters shadow 20:37:26 14° 109° (ESE) 3,496 8.8 -13.7°
